User: anonymous   Login
Location: B?jaj?g
(11.7167°N, 92.6667°E)
Time: 00:29:40
(UTC+00:00)
Language:

Cosmos 1862 Rocket - Orbit

View from above orbital plane
View from above orbital plane
View from above satellite
View from above satellite

Ground track
Ground track

The orbit data is extracted from the following two-line orbital elements,

1 18153U 87055B   21127.32814535  .00000065  00000-0  49571-5 0  9999
2 18153  82.5028 211.0512 0023152  85.4279 274.9579 14.83326647807793
Epoch (UTC): 07 May 2021 07:52:31
Eccentricity: 0.0023152
inclination: 82.5028°
perigee height: 602 km
apogee height: 635 km
right ascension of ascending node: 211.0512°
argument of perigee: 85.4279°
revolutions per day: 14.83326647
mean anomaly at epoch: 274.9579°
orbit number at epoch: 80779

The dashed part of the orbit path shows where the satellite is in the earth's shadow,  

DLR